PROBA-1 1 26958U 01049B 25340.91596480 .00004521 00000+0 30010-3 0 9998 2 26958 97.9589 337.8905 0057693 53.8391 306.8154 15.06403358314665 CUTE-1 (CO-55) 1 27844U 03031E 25340.96954269 .00000676 00000+0 31252-3 0 9990 2 27844 98.6763 346.9469 0010079 29.5125 330.6621 14.24171667164313 CUBESAT XI-IV (CO-57) 1 27848U 03031J 25340.93325621 .00000562 00000+0 26622-3 0 9994 2 27848 98.6794 346.7779 0010277 46.5370 313.6662 14.23480822164023 APRIZESAT 4 1 35684U 09041D 25340.91852715 .00001936 00000+0 23888-3 0 9992 2 35684 98.1649 47.2555 0042719 223.8190 135.9631 14.83472433882859 APRIZESAT 3 1 35686U 09041F 25340.91827422 .00002953 00000+0 26322-3 0 9997 2 35686 98.1786 120.3732 0062367 342.7343 17.1755 14.95383638887635 PROBA-2 1 36037U 09059B 25340.93475589 .00000663 00000+0 16541-3 0 9990 2 36037 98.2375 162.0010 0013705 150.2071 209.9909 14.54704024853574 APRIZESAT 5 1 37792U 11044E 25340.77039258 .00002652 00000+0 34596-3 0 9997 2 37792 98.2355 263.5578 0051301 262.2282 97.3102 14.80547771770316 APRIZESAT 6 1 37793U 11044F 25340.98790604 .00002010 00000+0 29211-3 0 9996 2 37793 98.2459 242.4920 0043149 342.4886 82.3881 14.76514004768785 PROBA-V 1 39159U 13021A 25340.95745925 .00000164 00000+0 90164-4 0 9998 2 39159 98.3383 324.2889 0003897 352.6614 7.4508 14.23545173653769 APRIZESAT 7 1 39416U 13066A 25340.84946912 .00002583 00000+0 26435-3 0 9996 2 39416 97.7464 292.2242 0037502 127.3732 233.0912 14.90872151652569 APRIZESAT 8 1 39425U 13066K 25340.80904068 .00002658 00000+0 29669-3 0 9993 2 39425 97.7998 286.3126 0045853 197.1385 162.8285 14.87090076651074 BUGSAT-1 (TITA) 1 40014U 14033E 25340.90261269 .00010227 00000+0 57353-3 0 9996 2 40014 98.0571 57.4717 0030535 115.8114 244.6271 15.13185296626730 SAUDISAT 4 1 40016U 14033G 25340.89308132 .00001492 00000+0 20490-3 0 9993 2 40016 97.7296 129.0610 0044650 340.9998 18.9546 14.79153299617640 APRIZESAT 9 1 40018U 14033J 25340.90142566 .00001513 00000+0 23023-3 0 9993 2 40018 97.8789 114.1845 0067875 98.4363 262.4547 14.73870847615239 APRIZESAT 10 1 40019U 14033K 25340.93238762 .00001649 00000+0 26662-3 0 9993 2 40019 97.9407 107.5407 0079532 166.8741 193.4561 14.70578498613995 TECHDEMOSAT-1 (TDS-1) 1 40076U 14037H 25340.91119011 .00014648 00000+0 92186-3 0 9990 2 40076 98.3666 309.8378 0006289 179.8187 180.3043 15.09301833619188 TECHNOSAT 1 42829U 17042E 25340.93784630 .00006929 00000+0 51259-3 0 9993 2 42829 97.4029 141.3944 0018706 31.9311 328.3044 15.03337034457801 FLYING LAPTOP 1 42831U 17042G 25340.93123500 .00005780 00000+0 46998-3 0 9997 2 42831 97.4218 139.8187 0015055 67.6977 292.5842 14.99848414457624 HAWK-A 1 43765U 18099H 25340.86658294 .00012931 00000+0 56842-3 0 9997 2 43765 97.4217 30.6993 0035961 240.0923 119.6739 15.21433766383829 HAWK-B 1 43794U 18099AN 25340.67349717 .00012093 00000+0 55776-3 0 9999 2 43794 97.4267 30.2920 0032608 257.5902 102.1683 15.19913483383761 HAWK-C 1 43799U 18099AT 25340.71920980 .00014439 00000+0 57752-3 0 9998 2 43799 97.4194 30.5975 0042569 244.3334 115.3504 15.24345611384552 SALSAT 1 46495U 20068K 25340.95890522 .00012794 00000+0 49717-3 0 9991 2 46495 97.8780 327.9198 0008644 253.9020 106.1265 15.26175245286006 HAWK-2C 1 47502U 21006CT 25340.82201388 .00012980 00000+0 42803-3 0 9992 2 47502 97.2564 24.0501 0007807 158.3909 201.7664 15.31539933270021 HAWK-2A 1 47505U 21006CW 25340.82501904 .00011905 00000+0 39311-3 0 9998 2 47505 97.2608 24.6184 0007328 160.9329 199.2188 15.31520126270025 HAWK-2B 1 47508U 21006CZ 25340.82234252 .00013255 00000+0 43706-3 0 9993 2 47508 97.2480 23.2733 0008012 159.5916 200.5647 15.31535020270023 HAWK-3B 1 48931U 21059BE 25340.93110005 .00036669 00000+0 55329-3 0 9991 2 48931 97.6698 156.6877 0005696 323.4180 36.6683 15.54661206247842 HAWK-3C 1 48948U 21059BX 25340.93089076 .00038385 00000+0 57870-3 0 9992 2 48948 97.6859 161.9839 0006224 324.5050 35.5789 15.54671127247840 HAWK-3A 1 48957U 21059CG 25340.93071345 .00037326 00000+0 56295-3 0 9996 2 48957 97.6789 159.3622 0005867 323.1144 36.9705 15.54668811247843 HAWK-5C 1 52754U 22057Y 25340.93431984 .00027147 00000+0 60920-3 0 9994 2 52754 97.6376 124.6957 0006318 52.3206 307.8613 15.43345241196616 HAWK-5B 1 52756U 22057AA 25340.93412566 .00023596 00000+0 53028-3 0 9996 2 52756 97.6360 123.0543 0006449 48.8060 311.3742 15.43329556196612 HAWK-5A 1 52757U 22057AB 25340.93385598 .00024625 00000+0 55314-3 0 9995 2 52757 97.6369 123.8766 0006661 50.6211 309.5625 15.43333831196612 HAWK-6B 1 55324U 23011A 25340.84412290 .00009138 00000+0 41721-3 0 9998 2 55324 40.5160 31.9789 0001732 166.5948 193.4907 15.20542533158531 HAWK-6C 1 55326U 23011C 25340.84351666 .00009314 00000+0 42500-3 0 9991 2 55326 40.4843 29.0989 0001198 144.3891 215.6997 15.20543583158540 HAWK-6A 1 55327U 23011D 25340.84352736 .00009480 00000+0 43246-3 0 9993 2 55327 40.5005 30.5793 0001028 164.8597 195.2243 15.20543863158542 HAWK-7A 1 56191U 23054P 25340.70140053 .00014410 00000+0 50330-3 0 9993 2 56191 97.2929 227.5857 0007175 28.7761 331.3874 15.29654890147649 HAWK-7B 1 56193U 23054R 25340.70127060 .00012565 00000+0 43937-3 0 9992 2 56193 97.2941 225.7828 0007093 39.1966 320.9788 15.29649227147641 HAWK-7C 1 56200U 23054Y 25340.96272744 .00012286 00000+0 42960-3 0 9994 2 56200 97.2934 226.8608 0006872 31.7622 328.4032 15.29658934147685